KD8NVS-13 Weather Reports


time (UTC)temp
C
wind
direction
speed
KPH
gust
KPH
rain 1hr
cm
rain 24hr
cm
rain mn
cm
humidity
%
barometer
mb
20260508135816 13 288 4.8 6.4 0.00 0.00 0.00 60 1004.9
20260508135312 13 252 3.2 3.2 0.00 0.00 0.00 59 1004.5
20260508134808 13 265 12.9 12.9 0.00 0.00 0.00 59 1004.2
20260508134306 13 246 4.8 4.8 0.00 0.00 0.00 59 1004.5
20260508133802 13 281 6.4 6.4 0.00 0.00 0.00 58 1004.5
20260508133300 12 222 9.7 9.7 0.00 0.00 0.00 59 1004.5
20260508132757 12 276 3.2 3.2 0.00 0.00 0.00 59 1004.2
20260508132254 12 270 3.2 3.2 0.00 0.00 0.00 61 1004.2
20260508131750 12 270 3.2 3.2 0.00 0.00 0.00 62 1004.5
20260508131246 12 222 3.2 3.2 0.00 0.00 0.00 62 1004.5
20260508130743 12 259 3.2 3.2 0.00 0.00 0.00 62 1004.2
20260508130241 12 254 3.2 3.2 0.00 0.00 0.00 61 1004.2
20260508125736 11 204 6.4 6.4 0.00 0.00 0.00 61 1004.5
20260508125233 12 254 6.4 6.4 0.00 0.00 0.00 60 1004.2
20260508124731 11 258 4.8 4.8 0.00 0.00 0.00 60 1004.2
20260508124228 11 254 8.0 8.0 0.00 0.00 0.00 60 1004.2
20260508123726 11 267 4.8 4.8 0.00 0.00 0.00 61 1004.5
20260508123224 11 192 1.6 1.6 0.00 0.00 0.00 61 1004.5
20260508122719 11 266 4.8 6.4 0.00 0.00 0.00 63 1004.5
20260508122216 11 266 4.8 6.4 0.00 0.00 0.00 62 1004.2
20260508121714 10 264 1.6 1.6 0.00 0.00 0.00 63 1004.2
20260508121213 10 288 8.0 9.7 0.00 0.00 0.00 63 1004.2
20260508120709 10 288 8.0 9.7 0.00 0.00 0.00 63 1004.2
20260508120207 10 264 3.2 3.2 0.00 0.00 0.00 63 1004.2
20260508115705 10 264 6.4 6.4 0.00 0.00 0.00 64 1004.2
20260508115202 10 66 0.0 0.0 0.00 0.00 0.00 65 1004.2
20260508114658 10 240 4.8 4.8 0.00 0.00 0.00 65 1004.2
20260508114155 10 267 8.0 9.7 0.00 0.00 0.00 65 1004.2
20260508113652 9 210 3.2 3.2 0.00 0.00 0.00 65 1004.2
20260508113150 8 246 0.0 0.0 0.00 0.00 0.00 68 1004.2
20260508112646 8 246 3.2 3.2 0.00 0.00 0.00 69 1003.8
20260508112143 8 267 0.0 0.0 0.00 0.00 0.00 69 1003.8
20260508111639 8 267 3.2 3.2 0.00 0.00 0.00 71 1004.2
20260508111137 8 282 0.0 0.0 0.00 0.00 0.00 71 1003.8
20260508110635 7 182 3.2 3.2 0.00 0.00 0.00 72 1003.8
20260508110131 7 282 0.0 0.0 0.00 0.00 0.00 73 1003.8
20260508105626 7 192 1.6 1.6 0.00 0.00 0.00 74 1003.8
20260508105123 7 186 3.2 3.2 0.00 0.00 0.00 74 1003.8
20260508104621 7 186 0.0 0.0 0.00 0.00 0.00 75 1003.8
20260508104117 6 186 0.0 0.0 0.00 0.00 0.00 76 1003.8
20260508103615 6 186 0.0 0.0 0.00 0.00 0.00 76 1003.5
20260508103112 6 186 0.0 0.0 0.00 0.00 0.00 78 1003.5
20260508102609 6 186 0.0 0.0 0.00 0.00 0.00 78 1003.5
20260508102107 6 186 0.0 0.0 0.00 0.00 0.00 79 1003.8
20260508101604 5 186 0.0 0.0 0.00 0.00 0.00 81 1003.8
20260508101101 5 186 0.0 0.0 0.00 0.00 0.00 82 1003.8
20260508100559 5 186 0.0 0.0 0.00 0.00 0.00 84 1003.5
20260508100055 5 186 0.0 0.0 0.00 0.00 0.00 84 1003.5
20260508095553 5 186 0.0 0.0 0.00 0.00 0.00 85 1003.8
20260508095049 5 186 0.0 0.0 0.00 0.00 0.00 85 1003.8
20260508094547 5 186 0.0 0.0 0.00 0.00 0.00 85 1003.8
20260508094044 5 186 0.0 0.0 0.00 0.00 0.00 84 1003.8
20260508093541 5 186 0.0 0.0 0.00 0.00 0.00 83 1003.5
20260508093038 5 186 0.0 0.0 0.00 0.00 0.00 85 1003.8
20260508092535 5 186 0.0 0.0 0.00 0.00 0.00 85 1003.8
20260508092035 5 186 0.0 0.0 0.00 0.00 0.00 84 1003.5
20260508091531 5 186 0.0 0.0 0.00 0.00 0.00 84 1003.8
20260508091028 5 186 0.0 0.0 0.00 0.00 0.00 84 1003.8
20260508090526 5 186 0.0 0.0 0.00 0.00 0.00 85 1003.8
20260508090022 5 186 0.0 0.0 0.00 0.00 0.00 85 1003.8
20260508085519 5 186 0.0 0.0 0.00 0.00 0.00 85 1003.5
20260508085016 5 186 0.0 0.0 0.00 0.00 0.00 85 1003.5
20260508084513 5 186 1.6 1.6 0.00 0.00 0.00 83 1003.5
20260508084010 5 186 0.0 0.0 0.00 0.00 0.00 84 1003.8
20260508083507 5 186 0.0 0.0 0.00 0.00 0.00 85 1003.5
20260508083004 6 186 0.0 0.0 0.00 0.00 0.00 85 1003.8
20260508082459 6 186 0.0 0.0 0.00 0.00 0.00 84 1003.8
20260508081957 6 186 0.0 0.0 0.00 0.00 0.00 83 1003.8
20260508081454 6 186 0.0 0.0 0.00 0.00 0.00 82 1003.8
20260508080950 6 186 0.0 0.0 0.00 0.00 0.00 82 1003.8
20260508080448 6 186 0.0 0.0 0.00 0.00 0.00 81 1004.2
20260508075945 7 186 0.0 0.0 0.00 0.00 0.00 80 1003.8
20260508075442 7 186 0.0 0.0 0.00 0.00 0.00 77 1003.8
20260508074940 7 186 0.0 0.0 0.00 0.00 0.00 75 1004.2
20260508074437 8 186 0.0 0.0 0.00 0.00 0.00 74 1003.8
20260508073934 8 186 0.0 0.0 0.00 0.00 0.00 73 1003.8
20260508073431 8 186 0.0 0.0 0.00 0.00 0.00 71 1003.8
20260508072928 8 186 3.2 3.2 0.00 0.00 0.00 69 1004.2
20260508072424 8 186 3.2 3.2 0.00 0.00 0.00 71 1004.2
20260508071922 8 186 4.8 4.8 0.00 0.00 0.00 72 1004.2
20260508071420 8 186 3.2 3.2 0.00 0.00 0.00 72 1004.2
20260508070917 8 186 3.2 3.2 0.00 0.00 0.00 72 1004.2
20260508070415 8 186 4.8 6.4 0.00 0.00 0.00 73 1004.2
20260508065913 8 186 3.2 3.2 0.00 0.00 0.00 74 1004.2
20260508065410 8 186 0.0 0.0 0.00 0.00 0.00 72 1004.2
20260508064908 10 270 3.2 3.2 0.00 0.00 0.00 61 1003.8
20260508064405 10 270 3.2 3.2 0.00 0.00 0.00 61 1003.8
20260508063903 10 270 1.6 1.6 0.00 0.00 0.00 60 1003.8
20260508063401 9 270 0.0 0.0 0.00 0.00 0.00 64 1003.8
20260508062858 9 270 1.6 1.6 0.00 0.00 0.00 64 1003.5
20260508062355 9 270 1.6 1.6 0.00 0.00 0.00 64 1003.8
20260508061852 8 254 0.0 0.0 0.00 0.00 0.00 68 1003.8
20260508061349 8 254 0.0 0.0 0.00 0.00 0.00 69 1003.8
20260508060846 8 276 0.0 0.0 0.00 0.00 0.00 71 1004.2
20260508060344 7 276 0.0 0.0 0.00 0.00 0.00 72 1003.8
20260508055838 7 276 0.0 0.0 0.00 0.00 0.00 77 1003.8
20260508055336 7 276 0.0 0.0 0.00 0.00 0.00 80 1003.8
20260508054832 7 276 0.0 0.0 0.00 0.00 0.00 80 1003.8
20260508054330 6 276 0.0 0.0 0.00 0.00 0.00 82 1004.2
20260508053827 6 276 0.0 0.0 0.00 0.00 0.00 83 1004.2
20260508053324 6 276 0.0 0.0 0.00 0.00 0.00 82 1004.2
20260508052821 7 276 0.0 0.0 0.00 0.00 0.00 82 1003.8
20260508052318 7 276 0.0 0.0 0.00 0.00 0.00 82 1004.2
20260508051815 7 276 0.0 0.0 0.00 0.00 0.00 81 1004.2
20260508051310 7 276 0.0 0.0 0.00 0.00 0.00 80 1004.2
20260508050807 7 276 0.0 0.0 0.00 0.00 0.00 81 1004.2
20260508050304 7 276 0.0 0.0 0.00 0.00 0.00 82 1004.2
20260508045800 7 276 0.0 0.0 0.00 0.00 0.00 81 1003.8
20260508045257 7 276 0.0 0.0 0.00 0.00 0.00 80 1003.8
20260508044755 7 276 0.0 0.0 0.00 0.00 0.00 79 1004.2
20260508044251 7 276 0.0 0.0 0.00 0.00 0.00 78 1004.2
20260508043747 7 276 0.0 0.0 0.00 0.00 0.00 79 1004.2
20260508043245 7 276 0.0 0.0 0.00 0.00 0.00 81 1004.2
20260508042741 7 276 0.0 0.0 0.00 0.00 0.00 83 1004.2
20260508042239 6 276 0.0 0.0 0.00 0.00 0.00 83 1004.2
20260508041735 6 276 3.2 3.2 0.00 0.00 0.00 85 1004.2
20260508041232 6 276 0.0 0.0 0.00 0.00 0.00 87 1003.8
20260508040729 6 276 0.0 0.0 0.00 0.00 0.00 86 1004.2
20260508040226 6 276 0.0 0.0 0.00 0.00 0.00 85 1004.2
20260508035723 6 276 0.0 0.0 0.00 0.00 0.00 84 1004.2
20260508035221 6 276 0.0 0.0 0.00 0.00 0.00 84 1004.2
20260508034717 6 276 0.0 0.0 0.00 0.00 0.00 84 1004.2
20260508034215 6 276 0.0 0.0 0.00 0.00 0.00 84 1003.8
20260508033711 6 276 0.0 0.0 0.00 0.00 0.00 84 1004.2
20260508033210 6 276 0.0 0.0 0.00 0.00 0.00 84 1004.2
20260508032707 6 276 0.0 0.0 0.00 0.00 0.00 84 1003.8
20260508032204 6 276 0.0 0.0 0.00 0.00 0.00 83 1004.2
20260508031701 6 276 0.0 0.0 0.00 0.00 0.00 83 1004.2
20260508031157 6 276 0.0 0.0 0.00 0.00 0.00 83 1004.2
20260508030653 6 276 0.0 0.0 0.00 0.00 0.00 82 1004.2
20260508030151 6 276 0.0 0.0 0.00 0.00 0.00 81 1004.2
20260508025647 6 276 0.0 0.0 0.00 0.00 0.00 82 1004.2
20260508025144 6 276 0.0 0.0 0.00 0.00 0.00 81 1004.2
20260508024640 6 276 0.0 0.0 0.00 0.00 0.00 80 1004.2
20260508024138 6 276 0.0 0.0 0.00 0.00 0.00 79 1004.2
20260508023633 7 276 0.0 0.0 0.00 0.00 0.00 80 1004.2
20260508023132 7 276 0.0 0.0 0.00 0.00 0.00 78 1004.5
20260508022627 7 276 0.0 0.0 0.00 0.00 0.00 78 1003.8
20260508022124 7 276 0.0 0.0 0.00 0.00 0.00 78 1004.2
20260508021620 7 276 0.0 0.0 0.00 0.00 0.00 76 1004.2
20260508021116 7 276 0.0 0.0 0.00 0.00 0.00 76 1004.2
20260508020614 7 276 0.0 0.0 0.00 0.00 0.00 76 1004.2
20260508020111 7 276 0.0 0.0 0.00 0.00 0.00 75 1004.2
20260508015609 7 276 0.0 0.0 0.00 0.00 0.00 74 1004.2
20260508015105 7 276 0.0 0.0 0.00 0.00 0.00 73 1004.2
20260508014601 8 276 0.0 0.0 0.00 0.00 0.00 72 1004.2
20260508014058 8 276 0.0 0.0 0.00 0.00 0.00 70 1004.2
20260508013554 8 276 0.0 0.0 0.00 0.00 0.00 73 1004.2
20260508013051 8 276 0.0 0.0 0.00 0.00 0.00 70 1004.2
20260508012549 8 276 0.0 0.0 0.00 0.00 0.00 69 1004.2
20260508012046 8 276 0.0 0.0 0.00 0.00 0.00 68 1004.2
20260508011544 8 276 0.0 0.0 0.00 0.00 0.00 66 1004.2
20260508011041 9 276 0.0 0.0 0.00 0.00 0.00 65 1004.2
20260508010538 9 276 0.0 0.0 0.00 0.00 0.00 66 1003.8
20260508010036 10 276 0.0 0.0 0.00 0.00 0.00 65 1003.8
20260508005532 10 276 0.0 0.0 0.00 0.00 0.00 63 1003.5
20260508005029 11 276 0.0 0.0 0.00 0.00 0.00 59 1003.8
20260508004525 11 276 0.0 0.0 0.00 0.00 0.00 52 1003.8
20260508004021 12 276 0.0 0.0 0.00 0.00 0.00 48 1003.8
20260508003518 12 276 0.0 0.0 0.00 0.00 0.00 48 1003.5
20260508003016 12 276 3.2 3.2 0.00 0.00 0.00 46 1003.5
20260508002511 13 276 3.2 3.2 0.00 0.00 0.00 45 1003.5
20260508002009 13 276 3.2 3.2 0.00 0.00 0.00 43 1003.5
20260508001505 13 276 3.2 3.2 0.00 0.00 0.00 42 1003.5
20260508001001 14 276 1.6 1.6 0.00 0.00 0.00 41 1003.2
20260508000457 14 276 3.2 3.2 0.00 0.00 0.00 40 1003.5
20260507235954 14 276 3.2 3.2 0.00 0.00 0.00 39 1003.2
20260507235451 14 264 4.8 4.8 0.00 0.00 0.00 39 1003.5
20260507234949 14 266 3.2 3.2 0.00 0.00 0.00 39 1003.5
20260507234445 14 258 6.4 6.4 0.00 0.00 0.00 38 1003.5
20260507233941 14 264 8.0 9.7 0.00 0.00 0.00 38 1003.5
20260507233438 14 260 6.4 6.4 0.00 0.00 0.00 39 1003.5
20260507232937 14 258 8.0 9.7 0.00 0.00 0.00 38 1003.5
20260507232433 14 258 3.2 3.2 0.00 0.00 0.00 38 1003.5
20260507231930 14 254 8.0 8.0 0.00 0.00 0.00 38 1003.2
20260507231426 14 260 11.3 11.3 0.00 0.00 0.00 38 1003.2
20260507230923 15 248 6.4 6.4 0.00 0.00 0.00 37 1003.2
20260507230421 15 264 9.7 9.7 0.00 0.00 0.00 37 1003.5
20260507225921 15 248 8.0 9.7 0.00 0.00 0.00 37 1003.5
20260507225417 15 266 9.7 9.7 0.00 0.00 0.00 36 1003.5
20260507224913 14 282 11.3 12.9 0.00 0.00 0.00 36 1003.5
20260507224409 14 258 11.3 11.3 0.00 0.00 0.00 37 1003.5
20260507223906 13 270 9.7 9.7 0.00 0.00 0.00 37 1003.5
20260507223402 13 264 12.9 14.5 0.00 0.00 0.00 38 1003.5
20260507222859 13 276 11.3 11.3 0.00 0.00 0.00 39 1003.5
20260507222356 13 254 4.8 4.8 0.00 0.00 0.00 38 1003.5
20260507221853 13 258 9.7 9.7 0.00 0.00 0.00 39 1003.5
20260507221349 14 267 6.4 6.4 0.00 0.00 0.00 38 1003.5
20260507220845 14 258 16.1 17.7 0.00 0.00 0.00 38 1003.5
20260507220344 14 270 11.3 11.3 0.00 0.00 0.00 39 1003.8
20260507215839 15 250 11.3 12.9 0.00 0.00 0.00 38 1003.5
20260507215337 14 255 12.9 12.9 0.00 0.00 0.00 38 1003.2
20260507214834 14 264 3.2 3.2 0.00 0.00 0.00 39 1003.5
20260507214331 14 265 9.7 9.7 0.00 0.00 0.00 39 1003.5
20260507213826 13 253 8.0 8.0 0.00 0.00 0.00 40 1003.5
20260507213323 15 268 11.3 11.3 0.00 0.00 0.00 38 1003.2
20260507212820 15 270 12.9 16.1 0.00 0.00 0.00 37 1003.5
20260507212316 15 299 12.9 14.5 0.00 0.00 0.00 38 1003.2
20260507211813 15 276 11.3 12.9 0.00 0.00 0.00 38 1003.5
20260507211310 15 258 14.5 16.1 0.00 0.00 0.00 40 1003.2
20260507210806 14 261 8.0 8.0 0.00 0.00 0.00 40 1003.2
20260507210303 14 272 12.9 14.5 0.00 0.00 0.00 41 1003.2
20260507205759 14 264 12.9 12.9 0.00 0.00 0.00 41 1003.2
20260507205257 14 258 12.9 16.1 0.00 0.00 0.00 39 1003.2
20260507204753 14 260 14.5 16.1 0.00 0.00 0.00 38 1002.8
20260507204251 15 258 9.7 9.7 0.00 0.00 0.00 40 1002.8
20260507203748 15 270 9.7 9.7 0.00 0.00 0.00 38 1002.8
20260507203246 14 257 9.7 11.3 0.00 0.00 0.00 38 1002.8
20260507202742 14 250 14.5 16.1 0.00 0.00 0.00 39 1002.5
20260507202238 14 252 12.9 14.5 0.00 0.00 0.00 40 1002.8
20260507201733 14 258 9.7 9.7 0.00 0.00 0.00 40 1002.8
20260507201230 14 258 14.5 16.1 0.00 0.00 0.00 41 1003.2
20260507200726 14 258 14.5 17.7 0.00 0.00 0.00 40 1003.2
20260507200222 14 254 9.7 9.7 0.00 0.00 0.00 42 1002.8
20260507195719 14 258 6.4 8.0 0.00 0.00 0.00 42 1003.2
20260507195216 14 264 14.5 14.5 0.00 0.00 0.00 40 1002.8
20260507194713 14 252 9.7 11.3 0.00 0.00 0.00 40 1003.2
20260507194209 14 252 9.7 9.7 0.00 0.00 0.00 41 1003.2
20260507193706 14 258 14.5 16.1 0.00 0.00 0.00 41 1003.2
20260507193202 14 282 12.9 16.1 0.00 0.00 0.00 43 1003.2
20260507192658 14 276 16.1 17.7 0.00 0.00 0.00 43 1003.5
20260507192156 13 248 9.7 11.3 0.00 0.00 0.00 44 1003.2
20260507191651 14 250 14.5 16.1 0.00 0.00 0.00 44 1003.5
20260507191148 14 258 12.9 14.5 0.00 0.00 0.00 42 1003.5
20260507190645 14 276 11.3 12.9 0.00 0.00 0.00 43 1003.2
20260507190144 13 276 11.3 11.3 0.00 0.00 0.00 43 1003.5
20260507185642 14 255 11.3 11.3 0.00 0.00 0.00 43 1003.5
20260507185138 13 270 9.7 9.7 0.00 0.00 0.00 44 1003.2
20260507184636 13 258 17.7 19.3 0.00 0.00 0.00 44 1003.5
20260507184134 13 264 12.9 12.9 0.00 0.00 0.00 42 1003.2
20260507183630 13 253 16.1 16.1 0.00 0.00 0.00 43 1003.5
20260507183127 13 255 20.9 20.9 0.00 0.00 0.00 43 1003.5
20260507182624 13 254 11.3 12.9 0.00 0.00 0.00 43 1003.5
20260507182120 13 302 11.3 11.3 0.00 0.00 0.00 43 1003.5
20260507181617 13 276 12.9 12.9 0.00 0.00 0.00 41 1003.5
20260507181113 13 258 9.7 9.7 0.00 0.00 0.00 43 1003.5
20260507180609 13 270 19.3 22.5 0.00 0.00 0.00 42 1003.5
20260507180107 13 270 3.2 3.2 0.00 0.00 0.00 43 1003.2
20260507175602 13 281 12.9 14.5 0.00 0.00 0.00 42 1003.5
20260507175100 13 276 12.9 14.5 0.00 0.00 0.00 40 1003.5
20260507174557 13 252 11.3 11.3 0.00 0.00 0.00 41 1003.5
20260507174055 13 258 9.7 9.7 0.00 0.00 0.00 42 1003.5
20260507173552 13 264 6.4 8.0 0.00 0.00 0.00 42 1003.8
20260507173049 13 265 6.4 6.4 0.00 0.00 0.00 41 1003.8
20260507172544 13 258 16.1 19.3 0.00 0.00 0.00 42 1003.8
20260507172042 13 258 20.9 24.1 0.00 0.00 0.00 39 1004.2
20260507171537 13 258 12.9 16.1 0.00 0.00 0.00 43 1004.2
20260507171034 13 249 16.1 17.7 0.00 0.00 0.00 44 1004.2
20260507170531 13 258 9.7 9.7 0.00 0.00 0.00 44 1004.2
20260507170028 13 258 8.0 9.7 0.00 0.00 0.00 44 1003.8
20260507165524 12 282 9.7 9.7 0.00 0.00 0.00 44 1003.8
20260507165021 12 242 17.7 20.9 0.00 0.00 0.00 46 1004.2
20260507164517 12 266 9.7 9.7 0.00 0.00 0.00 48 1004.5
20260507164014 12 266 9.7 9.7 0.00 0.00 0.00 48 1004.5
20260507163511 12 270 9.7 9.7 0.00 0.00 0.00 45 1004.5
20260507163009 12 228 4.8 4.8 0.00 0.00 0.00 49 1004.2
20260507162503 12 288 4.8 6.4 0.00 0.00 0.00 48 1004.2
20260507162001 12 259 6.4 8.0 0.00 0.00 0.00 47 1004.5
20260507161456 12 281 16.1 17.7 0.00 0.00 0.00 45 1004.2
20260507160954 12 265 4.8 6.4 0.00 0.00 0.00 46 1004.2
20260507160449 12 264 11.3 11.3 0.00 0.00 0.00 46 1004.5
20260507155945 12 272 3.2 3.2 0.00 0.00 0.00 46 1004.2
20260507155442 12 270 8.0 9.7 0.00 0.00 0.00 48 1004.2
20260507154939 12 261 11.3 12.9 0.00 0.00 0.00 47 1004.2
20260507154435 12 254 0.0 0.0 0.00 0.00 0.00 50 1004.2
20260507153932 12 271 6.4 8.0 0.00 0.00 0.00 48 1003.8
20260507153429 12 258 4.8 4.8 0.00 0.00 0.00 48 1004.2
20260507152926 12 257 14.5 16.1 0.00 0.00 0.00 46 1004.2
20260507152422 12 276 4.8 4.8 0.00 0.00 0.00 50 1003.8
20260507151918 12 258 4.8 4.8 0.00 0.00 0.00 49 1003.8
20260507151415 12 266 4.8 4.8 0.00 0.00 0.00 48 1003.8
20260507150912 12 271 11.3 12.9 0.00 0.00 0.00 49 1003.8
20260507150408 12 265 6.4 6.4 0.00 0.00 0.00 48 1004.2
20260507145905 12 259 6.4 6.4 0.00 0.00 0.00 48 1004.2
20260507145401 12 258 12.9 14.5 0.00 0.00 0.00 50 1004.2
20260507144858 12 270 4.8 6.4 0.00 0.00 0.00 51 1004.2
20260507144355 11 255 11.3 11.3 0.00 0.00 0.00 51 1004.2
20260507143851 11 252 6.4 8.0 0.00 0.00 0.00 50 1004.2
20260507143349 11 267 8.0 9.7 0.00 0.00 0.00 52 1004.2
20260507142845 11 266 8.0 8.0 0.00 0.00 0.00 53 1004.2
20260507142342 11 282 6.4 6.4 0.00 0.00 0.00 55 1004.2
20260507141838 11 276 8.0 9.7 0.00 0.00 0.00 54 1004.2
20260507141335 11 258 9.7 9.7 0.00 0.00 0.00 55 1004.2
20260507140831 11 139 3.2 3.2 0.00 0.00 0.00 58 1004.2
20260507140328 11 270 6.4 6.4 0.00 0.00 0.00 56 1004.2